Regional Weather Roundup
Issued by NWS

Home | Current Version | Previous Version | Graphics & Text | Print | Product List | Glossary On
Versions: 1 2 3 4 5 6 7 8 9 10 11 12 13 14 15 16 17 18 19 20 21 22 23 24 25 26 27 28 29 30 31 32 33 34 35 36 37 38 39 40 41 42 43 44 45 46 47 48 49 50
000
ASUS43 KOAX 211602
RWRNE

WEATHER ROUNDUP FOR NEBRASKA
NATIONAL WEATHER SERVICE OMAHA NE
1100 AM CDT SAT APR 21 2018

NOTES: SATELLITE DATA IS BEING USED TO AUGMENT CLOUD COVER ABOVE
       12000 FEET.
       "FAIR" INDICATES FEW OR NO CLOUDS BELOW 12,000 FEET WITH NO
       SIGNIFICANT WEATHER AND/OR OBSTRUCTIONS TO VISIBILITY.


NEZ001>004-019>022-054>056-211700-
NEBRASKA PANHANDLE

CITY           SKY/WX    TMP DP  RH WIND       PRES   REMARKS
SCOTTSBLUFF    CLOUDY    37  37 100 SE6       30.23R WCI  32
ALLIANCE       FLURRIES  35  35 100 S8        30.22S WCI  29
CHADRON        LGT RAIN  40  36  86 S9        30.24R WCI  34
GORDON         LGT RAIN  38  36  91 S6        30.23S WCI  34
KIMBALL        LGT SNOW  33  33  99 CALM      30.20R
SIDNEY         CLOUDY    35  33  92 E7        30.21R WCI  29
$$

NEZ057>060-069>072-079>082-211700-
SOUTHWEST NEBRASKA

CITY           SKY/WX    TMP DP  RH WIND       PRES   REMARKS
NORTH PLATTE   CLOUDY    42  39  89 SE10      30.24S
IMPERIAL       CLOUDY    40  38  93 NE10      30.22R WCI  33
LEXINGTON      CLOUDY    42  39  88 E12       30.24S
MCCOOK         CLOUDY    41  40  96 E12       30.22R
OGALLALA       DRIZZLE   39  37  93 E7        30.23S WCI  34
$$

NEZ005>010-023>029-035>040-094-211700-
NORTH CENTRAL NEBRASKA

CITY           SKY/WX    TMP DP  RH WIND       PRES   REMARKS
VALENTINE      CLOUDY    41  38  89 SE9       30.28F
AINSWORTH      CLOUDY    40  39  97 CALM      30.28F
BROKEN BOW     LGT RAIN  41  38  89 N8        30.26R
O`NEILL        CLOUDY    46  39  76 NE7       30.31R
ORD            CLOUDY    43  38  82 NE3       30.27R
THEDFORD       RAIN      40  38  92 SE7       30.28R
$$

NEZ041-046>049-061>064-073>077-083>087-211700-
SOUTH CENTRAL NEBRASKA

CITY           SKY/WX    TMP DP  RH WIND       PRES   REMARKS
GRAND ISLAND   CLOUDY    44  37  76 E6        30.27R
AURORA         CLOUDY    44  39  85 SE6       30.27R
HASTINGS       CLOUDY    43  37  79 SE6       30.26R
HEBRON         RAIN      45  42  89 E6        30.27R
HOLDREGE       DRIZZLE   41  40  97 E14       30.24R
KEARNEY        LGT RAIN  42  39  89 E14       30.26
YORK             N/A     45  43  93 SE10      30.28R
$$

NEZ011>018-030>034-042>045-211700-
NORTHEAST NEBRASKA

CITY           SKY/WX    TMP DP  RH WIND       PRES   REMARKS
NORFOLK        CLOUDY    47  32  56 E9        30.28R
ALBION         CLOUDY    47  34  62 E9        30.28R
BLAIR          CLOUDY    49  30  48 NE8       30.30R
FREMONT        CLOUDY    50  31  48 E8        30.30R
TEKAMAH        CLOUDY    51  29  42 E7        30.31S
WAYNE          CLOUDY    45  35  68 NE3       30.31R
$$

NEZ050>053-065>068-078-088>093-211700-
SOUTHEAST NEBRASKA

CITY           SKY/WX    TMP DP  RH WIND       PRES   REMARKS
LINCOLN        CLOUDY    48  38  68 CALM      30.29S
OMAHA EPPLEY   CLOUDY    51  29  42 E3        30.29S
BEATRICE       DRIZZLE   46  43  90 E5        30.28R
FALLS CITY     CLOUDY    49  33  54 CALM      30.27R
NEBRASKA CITY  CLOUDY    50  33  52 CALM      30.28R
PLATTSMOUTH    CLOUDY    50  28  41 E6        30.30R
$$

NEZ044-045-051>053-067-211700-
OMAHA AREA

CITY           SKY/WX    TMP DP  RH WIND       PRES   REMARKS
OMAHA EPPLEY   CLOUDY    51  29  42 E3        30.29S
BLAIR          CLOUDY    49  30  48 NE8       30.30R
FREMONT        CLOUDY    50  31  48 E8        30.30R
MILLARD        CLOUDY    51  30  44 CALM      30.30R
OFFUTT AFB     CLOUDY    50  28  41 E6        30.29R
PLATTSMOUTH    CLOUDY    50  28  41 E6        30.30R
WAHOO          CLOUDY    51  24  36 E5        30.29S
$$




USA.gov is the U.S. government's official web portal to all federal, state and local government web resources and services.